Regional Weather Roundup
Issued by NWS

Home | Current Version | Previous Version | Graphics & Text | Print | Product List | Glossary On
Versions: 1 2 3 4 5 6 7 8 9 10 11 12 13 14 15 16 17 18 19 20 21 22 23 24 25 26 27 28 29 30 31 32 33 34 35 36 37 38 39 40 41 42 43 44 45 46 47 48 49 50
000
ASUS43 KMKX 241800
RWRWI

WISCONSIN REGIONAL WEATHER ROUNDUP
NATIONAL WEATHER SERVICE MILWAUKEE/SULLIVAN WI
100 PM CDT SAT JUN 24 2017

NOTE: "FAIR" INDICATES FEW OR NO CLOUDS BELOW 12,000 FEET WITH NO
SIGNIFICANT WEATHER AND/OR OBSTRUCTIONS TO VISIBILITY.

WIZ001-002-006>008-014>016-023>028-241900-
NORTHWEST WISCONSIN

CITY           SKY/WX    TMP DP  RH WIND       PRES   REMARKS
SUPERIOR ARPT  NOT AVBL
ASHLAND        CLOUDY    57  51  80 W9        29.94R
6HR MIN TEMP:  54; 6HR MAX TEMP:  58; 6HR PCP: TRACE;

HAYWARD        CLOUDY    62  44  51 SW8       29.95S
6HR MIN TEMP:  53; 6HR MAX TEMP:  62;

SIREN          CLOUDY    60  40  48 W7G16     29.98R
CUMBERLAND     PTSUNNY   59  41  51 W12G23    29.98S
RICE LAKE      PTSUNNY   62  41  45 W10G20    29.99S
CHETEK         PTSUNNY   63  46  54 W10G16    29.97F
LADYSMITH      PTSUNNY   62  46  55 W14G20    29.97S
EAU CLAIRE     NOT AVBL
MENOMONIE      PTSUNNY   64  44  48 W13G18    30.00S
6HR MIN TEMP:  55; 6HR MAX TEMP:  65;

NEW RICHMOND   CLOUDY    63  38  40 W9        30.00F
OSCEOLA        CLOUDY    62  42  47 W10       30.02F
$$

WIZ003>005-009-010-017-018-241900-
NORTH CENTRAL WISCONSIN

CITY           SKY/WX    TMP DP  RH WIND       PRES   REMARKS
MANITOWISH WTR CLOUDY    53  53  99 W9        29.93R FOG
ARBOR VITAE    CLOUDY    57  50  78 W9G16     29.92R
WOODRUFF       CLOUDY    57  50  78 W9G16     29.92R
RHINELANDER    CLOUDY    60  50  69 W13       29.93R
6HR MIN TEMP:  55; 6HR MAX TEMP:  61;

EAGLE RIVER    CLOUDY    57  48  71 W10       29.91R
LAND O LAKES   CLOUDY    55  53  93 W6        29.93R
6HR MIN TEMP:  54; 6HR MAX TEMP:  55;

PHILLIPS       CLOUDY    58  47  65 W10G16    29.94R
TOMAHAWK       NOT AVBL
MEDFORD        PTSUNNY   60  42  52 W12G18    29.95R
MERRILL        CLOUDY    60  47  63 W9        29.94S
6HR MIN TEMP:  55; 6HR MAX TEMP:  61;

$$

WIZ029-030-035-036-043>047-241900-
CENTRAL WISCONSIN

CITY           SKY/WX    TMP DP  RH WIND       PRES   REMARKS
WAUSAU         CLOUDY    62  44  51 W15       29.93R
6HR MIN TEMP:  55; 6HR MAX TEMP:  63;

MOSINEE        PTSUNNY   63  45  51 W18       29.96R
MARSHFIELD     PTSUNNY   61  43  51 W20G26    29.97R
6HR MIN TEMP:  53; 6HR MAX TEMP:  63;

STEVENS POINT  CLOUDY    63  41  44 W13G24    29.96S
WAUPACA        CLOUDY    66  44  45 W12       29.95S
6HR MIN TEMP:  61; 6HR MAX TEMP:  67;

WAUTOMA        MOSUNNY   67  46  47 W21G28    29.97S
6HR MIN TEMP:  57; 6HR MAX TEMP:  67;

WISC RAPIDS    MOSUNNY   67  43  41 NW14G25   29.98S
6HR MIN TEMP:  57; 6HR MAX TEMP:  68;

CAMP DOUGLAS   NOT AVBL
$$

WIZ011>013-019>022-031-037>040-048>050-241900-
NORTHEAST WISCONSIN

CITY           SKY/WX    TMP DP  RH WIND       PRES   REMARKS
ANTIGO         CLOUDY    60  51  72 W16       29.93S
SHAWANO        CLOUDY    63  52  66 W9        29.91S
OCONTO         CLOUDY    66  54  63 W13G21    29.88R
STURGEON BAY     N/A     60  56  86 NW14        N/A
6HR MIN TEMP:  60; 6HR MAX TEMP:  66;

GREEN BAY      PTSUNNY   68  54  60 W20G28    29.91R
6HR MIN TEMP:  60; 6HR MAX TEMP:  70; 6HR PCP: TRACE;

MANITOWOC      NOT AVBL
APPLETON       PTSUNNY   64  46  52 W15G24    29.93R
CLINTONVILLE   CLOUDY    63  46  55 W14G21    29.93R
OSHKOSH        CLOUDY    67  46  47 W15G23    29.94R
6HR MIN TEMP:  60; 6HR MAX TEMP:  68;

$$

WIZ032>034-041-042-053>061-241900-
SOUTHWEST WISCONSIN

CITY           SKY/WX    TMP DP  RH WIND       PRES   REMARKS
LA CROSSE      PTSUNNY   70  43  37 NW21G26   30.02R
6HR MIN TEMP:  63; 6HR MAX TEMP:  71;

SPARTA         PTSUNNY   64  44  48 W12G22    30.02S
VIROQUA        PTSUNNY   64  48  55 W14       30.04R
BOSCOBEL       MOSUNNY   69  43  38 NW10G23   30.04R
6HR MIN TEMP:  60; 6HR MAX TEMP:  70;

PRAIRIE DU CHI MOSUNNY   67  41  38 W13G23    30.05R
PLATTEVILLE    MOSUNNY   68  44  41 W18G29    30.05R
$$

WIZ056-057-062-063-064-067-068-241900-
SOUTH CENTRAL WISCONSIN

CITY           SKY/WX    TMP DP  RH WIND       PRES   REMARKS
REEDSBURG      MOSUNNY   66  50  57 W13       29.99S
BARABOO/DELLS  CLOUDY    64  48  56 W10       29.99S
LONE ROCK      NOT AVBL
MINERAL POINT  PTSUNNY   66  46  48 W14G25    30.03R
MADISON        PTSUNNY   67  47  48 W10G21    29.99R
6HR MIN TEMP:  59; 6HR MAX TEMP:  68;

MIDDLETON      PTSUNNY   66  48  52 W14       30.00S
WATERTOWN      PTSUNNY   67  47  48 W14G20    29.98S
MONROE         MOSUNNY   68  43  40 W20       30.01S
JANESVILLE     PTSUNNY   72  46  40 W14G22    30.00R
$$

WIZ051-052-058>065-066-070>072-241900-
SOUTHEAST WISCONSIN

CITY           SKY/WX    TMP DP  RH WIND       PRES   REMARKS
MILWAUKEE      MOSUNNY   70  45  40 W12       29.97R
6HR MIN TEMP:  63; 6HR MAX TEMP:  72;

WAUKESHA       PTSUNNY   64  48  55 W14G21    29.99R
MILWAUKEE/TIMM MOSUNNY   68  43  40 W13G23    29.98R
RACINE         MOSUNNY   71  45  39 W13G25    29.99R
6HR MIN TEMP:  62; 6HR MAX TEMP:  72;

KENOSHA        PTSUNNY   70  50  49 W16G25    29.98R
6HR MIN TEMP:  62; 6HR MAX TEMP:  71;

FOND DU LAC    PTSUNNY   67  43  41 W14G22    29.96R
6HR MIN TEMP:  60; 6HR MAX TEMP:  69;

SHEBOYGAN      MOSUNNY   68  49  50 W17G24    29.93R
6HR MIN TEMP:  61; 6HR MAX TEMP:  69;

WEST BEND      MOSUNNY   66  43  42 W17       29.96R
JUNEAU         PTSUNNY   65  45  47 W13G23    29.99R
$$

LSZ147-162-241900-
LAKE SUPERIOR

STATION/POSITION TIME  TEMP    WIND        PRES    WAVE
                       AIR SEA DIR/SP/G            HT/PER
                 (UTC) (F)     (DEG/KT/KT) (MB)    (FT/S)
W MID LAKE BUOY  1650   44 39  260/  6/  8 1011.8R   1/ 3
DEVILS ISLAND    1700   53     240/ 15/ 17 1012.6R
SAXON HARBOR     1730   60     250/  5/ 11 1012.9R
$$

LMZ867-665-643>646-241900-
LAKE MICHIGAN

STATION/POSITION TIME  TEMP    WIND        PRES    WAVE
                       AIR SEA DIR/SP/G            HT/PER
                 (UTC) (F)     (DEG/KT/KT) (MB)    (FT/S)
CHAMBERS ISLAND  1740   60     190/  4/  9 1011.2R
S GREEN BAY BUOY 1730   65     250/ 16/ 17 1011.5R
N MID LAKE BUOY  1650   59 58  250/  4/  4 1011.6R   1
NORTHPORT PIER   1740   63     320/  7/  9 1011.2R
KEWAUNEE LAKESHO 1730   63     290/  4/ 11 1011.7R
SHEBOYGAN LAKESH 1700   66     280/ 19/ 22 1012.7R
PORT WASHINGTON  1740   71     290/  6/ 18 1014.6R
ATWATER BUOY     1609   64 59  280/ 14/ 21 1013.8R
MILWAUKEE LAKESH 1740   67     280/ 11/ 18   N/A
S MID LAKE BUOY  1650   62 62  280/  6/  8 1014.4R   2/ 4
KENOSHA   LAKESH 1700   68     290/ 16/ 20 1014.2
$$

TC  - TEMPERATURE IN CELSIUS
VSB - VISIBILITY IN STATUTE MILES
WCI - WIND CHILL INDEX
HX  - HEAT INDEX




USA.gov is the U.S. government's official web portal to all federal, state and local government web resources and services.